FW5761 Weather Reports


Display with metric or nautical units.
time (UTC)temp
F
wind
direction
speed
MPH
gust
MPH
rain 1hr
in
rain 24hr
in
rain mn
in
humidity
%
barometer
mb
20260507180440 58 270 0.0 0.0 0.00 0.00 0.73 77 1001.6
20260507175930 58 248 0.0 0.0 0.00 0.00 0.73 77 1001.9
20260507175420 57 315 0.0 0.0 0.00 0.00 0.73 77 1002.4
20260507174909 58 293 0.0 0.0 0.00 0.00 0.73 77 1002.9
20260507174401 58 293 0.0 0.0 0.00 0.00 0.73 78 1003.0
20260507173851 57 293 0.0 0.0 0.00 0.00 0.73 78 1003.0
20260507173339 57 248 0.0 0.0 0.00 0.00 0.73 78 1002.8
20260507172829 57 293 0.0 0.0 0.00 0.00 0.73 78 1003.0
20260507172319 57 293 0.0 0.0 0.00 0.00 0.73 77 1002.8
20260507171809 57 293 0.0 0.0 0.00 0.00 0.73 77 1002.6
20260507171258 57 293 0.0 0.0 0.00 0.00 0.73 78 1002.2
20260507170749 57 270 0.0 0.0 0.00 0.00 0.73 78 1001.5
20260507165728 57 248 0.0 0.0 0.00 0.00 0.73 79 1000.6
20260507164158 58 248 0.0 0.0 0.00 0.00 0.73 78 1001.0
20260507163649 58 270 0.0 0.0 0.00 0.00 0.73 79 1001.2
20260507162628 58 270 0.0 0.0 0.00 0.00 0.73 78 1001.8
20260507162118 58 248 0.0 0.0 0.00 0.00 0.73 78 1001.9
20260507161608 58 248 0.0 0.0 0.00 0.00 0.73 78 1002.4
20260507161058 58 248 0.0 0.0 0.00 0.00 0.73 79 1002.5
20260507160037 58 270 0.0 0.0 0.00 0.00 0.73 80 1002.2
20260507155530 59 225 0.0 0.0 0.00 0.00 0.73 81 1002.1
20260507155018 58 270 0.0 0.0 0.00 0.00 0.73 81 1001.7
20260507153957 58 248 0.0 0.0 0.00 0.00 0.73 82 1001.6
20260507153447 58 248 0.0 0.0 0.00 0.00 0.73 81 1001.2
20260507151917 58 270 0.0 0.0 0.00 0.00 0.73 83 1001.2
20260507054041 63 203 0.0 0.0 0.00 0.00 0.73 99 999.8
20260507053531 63 225 0.0 0.0 0.00 0.00 0.73 99 999.9
20260507052512 63 270 0.0 0.0 0.00 0.00 0.73 99 1001.9
20260507052001 64 248 0.0 0.0 0.00 0.00 0.73 99 1001.8
20260507051136 64 270 0.0 0.0 0.73 0.80 0.73 99 1002.5
20260507050115 64 225 0.0 0.0 0.69 0.76 0.71 99 998.9
20260507045606 64 225 0.0 0.0 0.59 0.66 0.59 99 999.1
20260507045056 64 180 0.0 0.0 0.48 0.56 0.48 99 999.6
20260507044545 64 225 0.0 0.0 0.32 0.39 0.34 99 1000.3
20260507044035 64 203 0.0 0.0 0.19 0.26 0.21 98 999.8
20260507043525 65 203 0.0 0.0 0.01 0.08 0.04 96 1000.2
20260507043015 66 248 0.0 0.0 0.00 0.07 0.00 90 999.6
20260507042504 67 248 0.0 0.0 0.00 0.07 0.00 88 999.5
20260507041954 68 225 0.0 0.0 0.00 0.07 0.00 86 1000.1
20260507041445 69 248 0.0 0.0 0.00 0.07 0.00 83 999.9
20260507040936 70 248 0.0 0.0 0.00 0.07 0.00 80 999.9
20260507040425 73 225 0.0 0.0 0.00 0.07 0.00 76 999.1
20260507035915 78 0 0.0 0.0 0.00 0.07 0.00 82 998.1
20260507035404 78 0 0.0 0.0 0.00 0.07 0.00 82 997.7
20260507034855 77 338 0.0 0.0 0.00 0.07 0.00 82 997.7
20260507034344 77 338 0.0 0.0 0.00 0.07 0.00 83 997.4
20260507033834 77 0 0.0 0.0 0.00 0.07 0.00 83 996.8
20260507033323 77 0 0.0 0.0 0.00 0.07 0.00 84 996.8
20260507032305 77 338 0.0 0.0 0.00 0.07 0.00 84 996.9
20260507031754 77 338 0.0 0.0 0.00 0.07 0.00 84 997.1
20260507031243 77 338 0.0 0.0 0.00 0.07 0.00 83 996.8
20260507030733 77 0 0.0 0.0 0.00 0.07 0.00 83 996.6
20260507030222 77 0 0.0 0.0 0.00 0.07 0.00 83 996.7
20260507025712 77 0 0.0 0.0 0.00 0.07 0.07 83 997.1
20260507024653 77 0 0.0 0.0 0.00 0.07 0.07 83 997.3
20260507024143 78 338 0.0 0.0 0.00 0.07 0.07 83 997.4
20260507023632 77 0 0.0 0.0 0.00 0.07 0.07 83 997.7
20260507023122 78 0 0.0 0.0 0.00 0.07 0.07 83 997.7
20260507022612 78 23 0.0 0.0 0.00 0.07 0.07 83 997.9
20260507021607 78 0 0.0 0.0 0.00 0.07 0.07 83 997.9
20260507021042 78 0 0.0 0.0 0.00 0.07 0.07 83 997.7
20260507020532 78 0 0.0 0.0 0.00 0.07 0.07 82 997.7
20260507020028 78 338 0.0 0.0 0.00 0.07 0.07 83 997.8
20260507015511 77 23 0.0 0.0 0.00 0.07 0.07 83 997.9
20260507015001 77 23 0.0 0.0 0.00 0.07 0.07 83 997.9
20260507014452 77 0 0.0 0.0 0.00 0.07 0.07 83 998.3
20260507013942 77 23 0.0 0.0 0.00 0.07 0.07 83 998.3
20260507013431 77 45 0.0 0.0 0.00 0.07 0.07 84 998.4
20260507012410 77 23 0.0 0.0 0.00 0.07 0.07 84 998.6
20260507011900 77 23 0.0 0.0 0.00 0.07 0.07 83 998.9
20260507011351 78 0 0.0 0.0 0.00 0.07 0.07 83 998.9
20260507010841 78 23 0.0 0.0 0.00 0.07 0.07 83 999.1
20260507010330 78 23 0.0 0.0 0.00 0.07 0.07 83 999.3
20260507005820 78 23 0.0 0.0 0.00 0.07 0.07 83 999.4
20260507005310 78 338 0.0 0.0 0.00 0.07 0.07 82 999.7
20260507004250 78 0 0.0 0.0 0.00 0.07 0.07 81 999.2
20260507003740 79 0 0.0 0.0 0.00 0.07 0.07 81 998.9
20260507003230 79 23 0.0 0.0 0.00 0.07 0.07 81 998.9
20260507001659 79 0 0.0 0.0 0.00 0.07 0.07 80 998.4
20260507001149 79 0 0.0 0.0 0.00 0.07 0.07 80 998.8
20260507000129 79 45 0.0 0.0 0.00 0.07 0.07 81 998.9
20260506235110 79 23 0.0 0.0 0.00 0.07 0.07 80 999.0
20260506234559 79 23 0.0 0.0 0.00 0.07 0.07 80 999.1
20260506234049 80 23 0.0 0.0 0.00 0.07 0.07 80 999.0
20260506233539 80 23 0.0 0.0 0.00 0.07 0.07 79 999.1
20260506233029 80 23 0.0 0.0 0.00 0.07 0.07 79 999.1
20260506232009 80 0 0.0 0.0 0.00 0.07 0.07 78 999.3
20260506231459 80 23 0.0 0.0 0.00 0.07 0.07 78 999.2
20260506230948 80 23 0.0 0.0 0.00 0.07 0.07 78 999.2
20260506230439 80 23 0.0 0.0 0.00 0.07 0.07 78 999.2
20260506225929 80 23 0.0 0.0 0.00 0.07 0.07 79 999.2
20260506225419 80 0 0.0 0.0 0.00 0.07 0.07 79 998.9
20260506224908 80 45 0.0 0.0 0.00 0.07 0.07 78 999.3
20260506224357 80 23 0.0 0.0 0.00 0.07 0.07 78 999.4
20260506223848 80 45 0.0 0.0 0.00 0.07 0.07 78 999.5
20260506223337 80 45 0.0 0.0 0.00 0.07 0.07 78 999.5
20260506222827 80 23 0.0 0.0 0.00 0.07 0.07 78 999.5
20260506222317 80 45 0.0 0.0 0.00 0.07 0.07 79 999.6
20260506221807 80 23 0.0 0.0 0.00 0.07 0.07 78 999.9
20260506220747 80 23 0.0 0.0 0.00 0.07 0.07 78 1000.0
20260506220236 81 23 0.0 0.0 0.00 0.07 0.07 78 999.9
20260506215726 81 45 0.0 0.0 0.00 0.07 0.07 78 1000.3
20260506215216 81 23 0.0 0.0 0.00 0.07 0.07 77 1000.1
20260506214706 81 23 0.0 0.0 0.00 0.07 0.07 76 1000.2
20260506214156 82 23 0.0 0.0 0.00 0.07 0.07 76 1000.4
20260506213646 82 23 0.0 0.0 0.00 0.07 0.07 75 1000.6
20260506213138 82 45 0.0 0.0 0.00 0.07 0.07 75 1000.6
20260506212626 82 23 0.0 0.0 0.00 0.07 0.07 75 1000.6
20260506212118 82 23 0.0 0.0 0.00 0.07 0.07 75 1000.5
20260506211605 82 23 0.0 0.0 0.00 0.07 0.07 75 1000.5
20260506211055 82 45 0.0 0.0 0.00 0.07 0.07 76 1000.5
20260506210545 82 45 0.0 0.0 0.00 0.07 0.07 76 1000.8
20260506205015 83 23 0.0 0.0 0.00 0.07 0.07 75 1000.7
20260506204511 83 23 0.0 0.0 0.00 0.07 0.07 75 1000.6
20260506203954 83 45 0.0 0.0 0.00 0.07 0.07 74 1000.7
20260506203445 84 45 0.0 0.0 0.00 0.07 0.07 74 1000.7
20260506202935 84 23 0.0 0.0 0.00 0.07 0.07 74 1000.6
20260506202424 84 23 0.0 0.0 0.00 0.07 0.07 73 1000.4
20260506201914 84 45 0.0 0.0 0.00 0.07 0.07 73 1000.5
20260506201404 85 45 0.0 0.0 0.00 0.07 0.07 72 1000.7
20260506200854 85 45 0.0 0.0 0.00 0.07 0.07 72 1000.4
20260506200344 85 23 0.0 0.0 0.00 0.07 0.07 71 1000.5
20260506195834 85 23 0.0 0.0 0.00 0.07 0.07 71 1000.7
20260506195323 85 45 0.0 0.0 0.00 0.07 0.07 71 1000.7
20260506194813 85 23 0.0 0.0 0.00 0.07 0.07 71 1000.9
20260506194303 85 23 0.0 0.0 0.00 0.07 0.07 71 1000.9
20260506193753 85 45 0.0 0.0 0.00 0.07 0.07 70 1000.9
20260506193243 85 23 0.0 0.0 0.00 0.07 0.07 71 1000.8
20260506192732 86 45 0.0 0.0 0.00 0.07 0.07 71 1000.9
20260506192223 86 45 0.0 0.0 0.00 0.07 0.07 71 1001.0
20260506191712 85 45 0.0 0.0 0.00 0.07 0.07 71 1001.3
20260506191203 85 45 0.0 0.0 0.00 0.07 0.07 72 1001.4
20260506190143 86 23 0.0 0.0 0.00 0.07 0.07 71 1001.5
20260506185632 85 23 0.0 0.0 0.00 0.07 0.07 72 1001.6
20260506185122 85 45 0.0 0.0 0.00 0.07 0.07 72 1001.8
20260506184612 86 23 0.0 0.0 0.00 0.07 0.07 71 1001.7
20260506184101 85 45 0.0 0.0 0.00 0.07 0.07 71 1001.7
20260506183551 86 23 0.0 0.0 0.00 0.07 0.07 71 1001.9
20260506183042 85 45 0.0 0.0 0.00 0.07 0.07 72 1001.8
20260506182532 85 68 0.0 0.0 0.00 0.07 0.07 72 1002.1
20260506181513 84 23 0.0 0.0 0.00 0.07 0.07 72 1002.4
20260506181001 85 0 0.0 0.0 0.00 0.07 0.07 72 1002.4